| time (UTC) | temp F | wind direction | speed MPH | gust MPH | rain 1hr in | rain 24hr in | rain mn in | humidity % | barometer mb |
| 20260510222520 | 64 | 355 | 4.0 | 8.0 | 0.00 | 0.00 | 0.00 | 60 | 1015.1 |
| 20260510222017 | 64 | 355 | 3.0 | 6.0 | 0.00 | 0.00 | 0.00 | 60 | 1015.1 |
| 20260510221516 | 64 | 350 | 4.0 | 7.0 | 0.00 | 0.00 | 0.00 | 60 | 1015.1 |
| 20260510221011 | 65 | 327 | 3.0 | 6.0 | 0.00 | 0.00 | 0.00 | 59 | 1015.1 |
| 20260510220511 | 65 | 330 | 2.0 | 6.0 | 0.00 | 0.00 | 0.00 | 59 | 1015.2 |
| 20260510220010 | 65 | 342 | 4.0 | 6.0 | 0.00 | 0.00 | 0.00 | 59 | 1015.2 |
| 20260510215512 | 65 | 360 | 1.0 | 5.0 | 0.00 | 0.00 | 0.00 | 59 | 1015.3 |
| 20260510215008 | 65 | 21 | 1.0 | 3.0 | 0.00 | 0.00 | 0.00 | 59 | 1015.3 |
| 20260510214515 | 65 | 341 | 1.0 | 6.0 | 0.00 | 0.00 | 0.00 | 59 | 1015.4 |
| 20260510214015 | 65 | 19 | 2.0 | 6.0 | 0.00 | 0.00 | 0.00 | 59 | 1015.2 |
| 20260510213512 | 65 | 344 | 1.0 | 6.0 | 0.00 | 0.00 | 0.00 | 59 | 1015.3 |
| 20260510213008 | 65 | 300 | 1.0 | 9.0 | 0.00 | 0.00 | 0.00 | 60 | 1015.3 |
| 20260510212507 | 65 | 329 | 3.0 | 9.0 | 0.00 | 0.00 | 0.00 | 60 | 1015.3 |
| 20260510212008 | 65 | 355 | 3.0 | 10.0 | 0.00 | 0.00 | 0.00 | 60 | 1015.4 |
| 20260510211508 | 64 | 5 | 6.0 | 10.0 | 0.00 | 0.00 | 0.00 | 61 | 1015.4 |
| 20260510211008 | 65 | 360 | 4.0 | 6.0 | 0.00 | 0.00 | 0.00 | 61 | 1015.4 |
| 20260510210507 | 65 | 348 | 1.0 | 3.0 | 0.00 | 0.00 | 0.00 | 61 | 1015.5 |
| 20260510210007 | 65 | 319 | 0.0 | 3.0 | 0.00 | 0.00 | 0.00 | 61 | 1015.5 |
| 20260510205506 | 65 | 315 | 0.0 | 3.0 | 0.00 | 0.00 | 0.00 | 61 | 1015.6 |
| 20260510205007 | 65 | 315 | 1.0 | 4.0 | 0.00 | 0.00 | 0.00 | 61 | 1015.5 |
| 20260510204506 | 65 | 296 | 2.0 | 4.0 | 0.00 | 0.00 | 0.00 | 61 | 1015.6 |
| 20260510204007 | 65 | 360 | 0.0 | 4.0 | 0.00 | 0.00 | 0.00 | 61 | 1015.5 |
| 20260510203506 | 66 | 360 | 1.0 | 4.0 | 0.00 | 0.00 | 0.00 | 60 | 1015.4 |
| 20260510203009 | 66 | 5 | 0.0 | 1.0 | 0.00 | 0.00 | 0.00 | 60 | 1015.5 |
| 20260510202507 | 66 | 5 | 0.0 | 2.0 | 0.00 | 0.00 | 0.00 | 60 | 1015.4 |
| 20260510202007 | 66 | 355 | 0.0 | 2.0 | 0.00 | 0.00 | 0.00 | 60 | 1015.3 |
| 20260510201505 | 66 | 355 | 0.0 | 3.0 | 0.00 | 0.00 | 0.00 | 59 | 1015.1 |
| 20260510201005 | 66 | 329 | 0.0 | 3.0 | 0.00 | 0.00 | 0.00 | 59 | 1015.1 |
| 20260510200508 | 66 | 329 | 0.0 | 5.0 | 0.00 | 0.00 | 0.00 | 59 | 1015.1 |
| 20260510200005 | 66 | 349 | 2.0 | 6.0 | 0.00 | 0.00 | 0.00 | 59 | 1015.1 |
| 20260510195504 | 66 | 296 | 2.0 | 6.0 | 0.00 | 0.00 | 0.00 | 59 | 1014.9 |
| 20260510195004 | 66 | 29 | 1.0 | 6.0 | 0.00 | 0.00 | 0.00 | 59 | 1015.0 |
| 20260510194504 | 66 | 25 | 2.0 | 6.0 | 0.00 | 0.00 | 0.00 | 60 | 1014.9 |
| 20260510194004 | 66 | 312 | 1.0 | 6.0 | 0.00 | 0.00 | 0.00 | 60 | 1014.8 |
| 20260510193503 | 66 | 165 | 2.0 | 6.0 | 0.00 | 0.00 | 0.00 | 61 | 1015.0 |
| 20260510193005 | 66 | 88 | 2.0 | 6.0 | 0.00 | 0.00 | 0.00 | 61 | 1015.0 |
| 20260510192504 | 66 | 28 | 1.0 | 8.0 | 0.00 | 0.00 | 0.00 | 61 | 1014.8 |
| 20260510192004 | 66 | 28 | 3.0 | 6.0 | 0.00 | 0.00 | 0.00 | 62 | 1014.7 |
| 20260510191503 | 66 | 286 | 3.0 | 5.0 | 0.00 | 0.00 | 0.00 | 64 | 1014.9 |
| 20260510191003 | 66 | 333 | 1.0 | 9.0 | 0.00 | 0.00 | 0.00 | 64 | 1014.9 |
| 20260510190503 | 66 | 25 | 4.0 | 9.0 | 0.00 | 0.00 | 0.00 | 66 | 1014.7 |
| 20260510190007 | 66 | 348 | 3.0 | 6.0 | 0.00 | 0.00 | 0.00 | 67 | 1014.8 |
| 20260510185504 | 66 | 19 | 1.0 | 4.0 | 0.00 | 0.00 | 0.00 | 67 | 1014.8 |
| 20260510185001 | 66 | 142 | 0.0 | 2.0 | 0.00 | 0.00 | 0.00 | 67 | 1014.9 |
| 20260510184504 | 66 | 142 | 0.0 | 5.0 | 0.00 | 0.00 | 0.00 | 67 | 1015.0 |
| 20260510184003 | 66 | 165 | 0.0 | 5.0 | 0.00 | 0.00 | 0.00 | 67 | 1014.8 |
| 20260510183503 | 67 | 189 | 2.0 | 4.0 | 0.00 | 0.00 | 0.00 | 66 | 1015.0 |
| 20260510183002 | 67 | 185 | 0.0 | 4.0 | 0.00 | 0.00 | 0.00 | 65 | 1015.1 |
| 20260510182502 | 67 | 182 | 1.0 | 4.0 | 0.00 | 0.00 | 0.00 | 64 | 1014.7 |
| 20260510182003 | 68 | 115 | 0.0 | 0.0 | 0.00 | 0.00 | 0.00 | 63 | 1014.9 |
| 20260510181501 | 68 | 82 | 0.0 | 2.0 | 0.00 | 0.00 | 0.00 | 63 | 1015.0 |
| 20260510181001 | 68 | 84 | 0.0 | 2.0 | 0.00 | 0.00 | 0.00 | 63 | 1014.9 |
| 20260510180501 | 68 | 84 | 0.0 | 2.0 | 0.00 | 0.00 | 0.00 | 63 | 1014.6 |
| 20260510180001 | 67 | 84 | 0.0 | 2.0 | 0.00 | 0.00 | 0.00 | 63 | 1014.9 |
| 20260510175600 | 67 | 84 | 0.0 | 4.0 | 0.00 | 0.00 | 0.00 | 63 | 1015.0 |
| 20260510175100 | 68 | 80 | 1.0 | 4.0 | 0.00 | 0.00 | 0.00 | 63 | 1014.9 |
| 20260510174601 | 67 | 165 | 1.0 | 7.0 | 0.00 | 0.00 | 0.00 | 63 | 1014.8 |
| 20260510174501 | 67 | 167 | 0.0 | 7.0 | 0.00 | 0.00 | 0.00 | 63 | 1014.8 |
| 20260510174100 | 67 | 167 | 1.0 | 7.0 | 0.00 | 0.00 | 0.00 | 63 | 1014.7 |
| 20260510174000 | 67 | 167 | 2.0 | 7.0 | 0.00 | 0.00 | 0.00 | 63 | 1014.7 |
| 20260510173600 | 68 | 205 | 1.0 | 8.0 | 0.00 | 0.00 | 0.00 | 63 | 1014.9 |
| 20260510173100 | 68 | 192 | 3.0 | 8.0 | 0.00 | 0.00 | 0.00 | 63 | 1014.9 |
| 20260510172559 | 68 | 169 | 3.0 | 10.0 | 0.00 | 0.00 | 0.00 | 62 | 1014.8 |
| 20260510172101 | 68 | 193 | 6.0 | 12.0 | 0.00 | 0.00 | 0.00 | 61 | 1014.8 |
| 20260510171621 | 69 | 189 | 4.0 | 12.0 | 0.00 | 0.00 | 0.00 | 59 | 1014.7 |
| 20260510171101 | 70 | 190 | 5.0 | 11.0 | 0.00 | 0.00 | 0.00 | 57 | 1014.8 |
| 20260510170559 | 70 | 249 | 3.0 | 7.0 | 0.00 | 0.00 | 0.00 | 56 | 1014.5 |
| 20260510170104 | 70 | 167 | 3.0 | 8.0 | 0.00 | 0.00 | 0.00 | 55 | 1014.7 |
| 20260510165557 | 71 | 196 | 2.0 | 7.0 | 0.00 | 0.00 | 0.00 | 53 | 1014.8 |
| 20260510165058 | 71 | 277 | 4.0 | 7.0 | 0.00 | 0.00 | 0.00 | 53 | 1014.8 |
| 20260510164558 | 71 | 257 | 3.0 | 9.0 | 0.00 | 0.00 | 0.00 | 53 | 1015.1 |
| 20260510164057 | 71 | 172 | 4.0 | 10.0 | 0.00 | 0.00 | 0.00 | 53 | 1015.0 |
| 20260510163557 | 71 | 119 | 3.0 | 9.0 | 0.00 | 0.00 | 0.00 | 53 | 1015.1 |
| 20260510163057 | 71 | 143 | 2.0 | 11.0 | 0.00 | 0.00 | 0.00 | 53 | 1015.0 |
| 20260510162556 | 71 | 202 | 5.0 | 12.0 | 0.00 | 0.00 | 0.00 | 54 | 1015.2 |
| 20260510162058 | 70 | 201 | 4.0 | 9.0 | 0.00 | 0.00 | 0.00 | 53 | 1015.0 |
| 20260510161555 | 71 | 161 | 3.0 | 9.0 | 0.00 | 0.00 | 0.00 | 53 | 1015.1 |
| 20260510161055 | 71 | 163 | 3.0 | 9.0 | 0.00 | 0.00 | 0.00 | 52 | 1015.0 |
| 20260510160556 | 71 | 319 | 1.0 | 8.0 | 0.00 | 0.00 | 0.00 | 52 | 1014.9 |
| 20260510160109 | 70 | 224 | 1.0 | 8.0 | 0.00 | 0.00 | 0.00 | 54 | 1014.8 |
| 20260510155554 | 70 | 152 | 3.0 | 9.0 | 0.00 | 0.00 | 0.00 | 55 | 1015.1 |
| 20260510155054 | 70 | 331 | 3.0 | 8.0 | 0.00 | 0.00 | 0.00 | 56 | 1014.8 |
| 20260510154620 | 69 | 150 | 3.0 | 8.0 | 0.00 | 0.00 | 0.00 | 56 | 1014.9 |
| 20260510154053 | 70 | 126 | 3.0 | 8.0 | 0.00 | 0.00 | 0.00 | 57 | 1015.0 |
| 20260510153553 | 70 | 111 | 3.0 | 9.0 | 0.00 | 0.00 | 0.00 | 57 | 1015.1 |
| 20260510153102 | 69 | 209 | 3.0 | 11.0 | 0.00 | 0.00 | 0.00 | 57 | 1015.0 |
| 20260510152553 | 69 | 173 | 2.0 | 11.0 | 0.00 | 0.00 | 0.00 | 58 | 1015.0 |
| 20260510152054 | 70 | 105 | 4.0 | 11.0 | 0.00 | 0.00 | 0.00 | 57 | 1015.3 |
| 20260510151553 | 69 | 200 | 4.0 | 16.0 | 0.00 | 0.00 | 0.00 | 57 | 1015.3 |
| 20260510151054 | 70 | 159 | 4.0 | 16.0 | 0.00 | 0.00 | 0.00 | 57 | 1015.4 |
| 20260510150554 | 70 | 115 | 3.0 | 10.0 | 0.00 | 0.00 | 0.00 | 59 | 1015.5 |
| 20260510150110 | 69 | 118 | 2.0 | 9.0 | 0.00 | 0.00 | 0.00 | 61 | 1015.4 |
| 20260510145551 | 69 | 161 | 4.0 | 9.0 | 0.00 | 0.00 | 0.00 | 61 | 1015.4 |
| 20260510145053 | 69 | 174 | 5.0 | 9.0 | 0.00 | 0.00 | 0.00 | 61 | 1015.6 |
| 20260510144610 | 68 | 129 | 3.0 | 10.0 | 0.00 | 0.00 | 0.00 | 62 | 1015.6 |
| 20260510144051 | 68 | 188 | 3.0 | 10.0 | 0.00 | 0.00 | 0.00 | 63 | 1015.8 |
| 20260510143550 | 67 | 140 | 4.0 | 18.0 | 0.00 | 0.00 | 0.00 | 64 | 1015.8 |
| 20260510143050 | 68 | 181 | 10.0 | 19.0 | 0.00 | 0.00 | 0.00 | 63 | 1015.8 |
| 20260510142551 | 68 | 192 | 7.0 | 14.0 | 0.00 | 0.00 | 0.00 | 62 | 1015.8 |
| 20260510142051 | 68 | 186 | 6.0 | 13.0 | 0.00 | 0.00 | 0.00 | 61 | 1015.7 |
| 20260510141651 | 68 | 200 | 7.0 | 13.0 | 0.00 | 0.00 | 0.00 | 60 | 1015.8 |
| 20260510141051 | 69 | 189 | 6.0 | 9.0 | 0.00 | 0.00 | 0.00 | 59 | 1015.7 |
| 20260510140551 | 69 | 190 | 4.0 | 8.0 | 0.00 | 0.00 | 0.00 | 59 | 1015.6 |
| 20260510140050 | 69 | 163 | 4.0 | 8.0 | 0.00 | 0.00 | 0.00 | 59 | 1015.8 |
| 20260510135549 | 69 | 205 | 2.0 | 7.0 | 0.00 | 0.00 | 0.00 | 58 | 1015.7 |
| 20260510135051 | 69 | 146 | 3.0 | 10.0 | 0.00 | 0.00 | 0.00 | 58 | 1015.7 |
| 20260510134551 | 69 | 240 | 3.0 | 11.0 | 0.00 | 0.00 | 0.00 | 58 | 1015.8 |
| 20260510134049 | 69 | 175 | 3.0 | 9.0 | 0.00 | 0.00 | 0.00 | 57 | 1015.9 |
| 20260510133548 | 69 | 197 | 5.0 | 12.0 | 0.00 | 0.00 | 0.00 | 57 | 1015.7 |
| 20260510133049 | 69 | 203 | 5.0 | 12.0 | 0.00 | 0.00 | 0.00 | 57 | 1015.9 |
| 20260510132548 | 69 | 183 | 4.0 | 8.0 | 0.00 | 0.00 | 0.00 | 57 | 1015.8 |
| 20260510132049 | 70 | 173 | 5.0 | 11.0 | 0.00 | 0.00 | 0.00 | 56 | 1015.9 |
| 20260510131549 | 70 | 192 | 4.0 | 11.0 | 0.00 | 0.00 | 0.00 | 55 | 1015.8 |
| 20260510131051 | 71 | 130 | 3.0 | 10.0 | 0.00 | 0.00 | 0.00 | 56 | 1015.9 |
| 20260510130549 | 71 | 207 | 6.0 | 10.0 | 0.00 | 0.00 | 0.00 | 55 | 1015.8 |
| 20260510130049 | 71 | 198 | 4.0 | 9.0 | 0.00 | 0.00 | 0.00 | 54 | 1015.7 |
| 20260510125547 | 71 | 198 | 2.0 | 9.0 | 0.00 | 0.00 | 0.00 | 56 | 1015.9 |
| 20260510125049 | 71 | 182 | 5.0 | 10.0 | 0.00 | 0.00 | 0.00 | 56 | 1016.0 |
| 20260510124548 | 71 | 103 | 2.0 | 10.0 | 0.00 | 0.00 | 0.00 | 55 | 1015.7 |
| 20260510124047 | 70 | 171 | 6.0 | 10.0 | 0.00 | 0.00 | 0.00 | 54 | 1015.7 |
| 20260510123547 | 70 | 197 | 7.0 | 10.0 | 0.00 | 0.00 | 0.00 | 54 | 1015.8 |
| 20260510123053 | 70 | 145 | 3.0 | 9.0 | 0.00 | 0.00 | 0.00 | 53 | 1016.0 |
| 20260510122546 | 70 | 178 | 5.0 | 9.0 | 0.00 | 0.00 | 0.00 | 53 | 1015.9 |
| 20260510122045 | 71 | 180 | 5.0 | 9.0 | 0.00 | 0.00 | 0.00 | 54 | 1016.0 |
| 20260510121546 | 71 | 190 | 3.0 | 10.0 | 0.00 | 0.00 | 0.00 | 53 | 1015.9 |
| 20260510121047 | 71 | 194 | 4.0 | 9.0 | 0.00 | 0.00 | 0.00 | 55 | 1016.0 |
| 20260510120544 | 72 | 175 | 3.0 | 10.0 | 0.00 | 0.00 | 0.00 | 56 | 1016.1 |
| 20260510120044 | 72 | 195 | 4.0 | 10.0 | 0.00 | 0.00 | 0.00 | 55 | 1016.1 |
| 20260510115544 | 72 | 139 | 4.0 | 10.0 | 0.00 | 0.00 | 0.00 | 56 | 1016.2 |
| 20260510115043 | 72 | 186 | 3.0 | 10.0 | 0.00 | 0.00 | 0.00 | 56 | 1016.2 |
| 20260510114543 | 72 | 124 | 4.0 | 17.0 | 0.00 | 0.00 | 0.00 | 56 | 1016.2 |
| 20260510114042 | 72 | 167 | 6.0 | 17.0 | 0.00 | 0.00 | 0.00 | 55 | 1016.2 |
| 20260510113542 | 72 | 172 | 5.0 | 11.0 | 0.00 | 0.00 | 0.00 | 56 | 1016.3 |
| 20260510113042 | 72 | 166 | 5.0 | 13.0 | 0.00 | 0.00 | 0.00 | 56 | 1016.4 |
| 20260510112540 | 71 | 141 | 4.0 | 13.0 | 0.00 | 0.00 | 0.00 | 56 | 1016.4 |
| 20260510112039 | 71 | 141 | 4.0 | 10.0 | 0.00 | 0.00 | 0.00 | 57 | 1016.3 |
| 20260510111545 | 71 | 102 | 4.0 | 10.0 | 0.00 | 0.00 | 0.00 | 55 | 1016.3 |
| 20260510111040 | 71 | 161 | 4.0 | 10.0 | 0.00 | 0.00 | 0.00 | 54 | 1016.4 |
| 20260510110540 | 71 | 104 | 5.0 | 10.0 | 0.00 | 0.00 | 0.00 | 55 | 1016.4 |
| 20260510110038 | 71 | 149 | 4.0 | 9.0 | 0.00 | 0.00 | 0.00 | 54 | 1016.4 |
| 20260510105537 | 71 | 194 | 3.0 | 10.0 | 0.00 | 0.00 | 0.00 | 56 | 1016.3 |
| 20260510105037 | 71 | 101 | 2.0 | 7.0 | 0.00 | 0.00 | 0.00 | 55 | 1016.2 |
| 20260510104551 | 71 | 177 | 3.0 | 11.0 | 0.00 | 0.00 | 0.00 | 55 | 1016.3 |
| 20260510104036 | 71 | 150 | 5.0 | 11.0 | 0.00 | 0.00 | 0.00 | 56 | 1016.5 |
| 20260510103533 | 70 | 192 | 0.0 | 6.0 | 0.00 | 0.00 | 0.00 | 58 | 1016.4 |
| 20260510103032 | 69 | 182 | 3.0 | 9.0 | 0.00 | 0.00 | 0.00 | 59 | 1016.5 |
| 20260510102530 | 69 | 167 | 4.0 | 9.0 | 0.00 | 0.00 | 0.00 | 60 | 1016.6 |
| 20260510102030 | 68 | 203 | 1.0 | 5.0 | 0.00 | 0.00 | 0.00 | 60 | 1016.5 |
| 20260510101528 | 68 | 207 | 3.0 | 5.0 | 0.00 | 0.00 | 0.00 | 60 | 1016.6 |
| 20260510101028 | 68 | 213 | 1.0 | 4.0 | 0.00 | 0.00 | 0.00 | 61 | 1016.5 |
| 20260510100526 | 68 | 305 | 1.0 | 4.0 | 0.00 | 0.00 | 0.00 | 60 | 1016.5 |
| 20260510100025 | 68 | 146 | 1.0 | 3.0 | 0.00 | 0.00 | 0.00 | 61 | 1016.5 |
| 20260510095531 | 68 | 177 | 0.0 | 4.0 | 0.00 | 0.00 | 0.00 | 61 | 1016.5 |
| 20260510095025 | 67 | 188 | 2.0 | 4.0 | 0.00 | 0.00 | 0.00 | 62 | 1016.6 |
| 20260510094523 | 67 | 164 | 1.0 | 5.0 | 0.00 | 0.00 | 0.00 | 63 | 1016.5 |
| 20260510094022 | 67 | 160 | 2.0 | 5.0 | 0.00 | 0.00 | 0.00 | 63 | 1016.5 |
| 20260510093523 | 67 | 200 | 0.0 | 3.0 | 0.00 | 0.00 | 0.00 | 63 | 1016.4 |
| 20260510093023 | 67 | 200 | 1.0 | 3.0 | 0.00 | 0.00 | 0.00 | 62 | 1016.4 |
| 20260510092525 | 67 | 252 | 0.0 | 3.0 | 0.00 | 0.00 | 0.00 | 64 | 1016.4 |
| 20260510092022 | 67 | 252 | 0.0 | 4.0 | 0.00 | 0.00 | 0.00 | 63 | 1016.3 |
| 20260510091526 | 67 | 202 | 2.0 | 5.0 | 0.00 | 0.00 | 0.00 | 64 | 1016.5 |
| 20260510091022 | 67 | 185 | 2.0 | 5.0 | 0.00 | 0.00 | 0.00 | 64 | 1016.5 |
| 20260510090521 | 67 | 194 | 2.0 | 5.0 | 0.00 | 0.00 | 0.00 | 63 | 1016.5 |
| 20260510090024 | 67 | 193 | 1.0 | 5.0 | 0.00 | 0.00 | 0.00 | 63 | 1016.5 |
| 20260510085520 | 68 | 135 | 2.0 | 5.0 | 0.00 | 0.00 | 0.00 | 62 | 1016.3 |
| 20260510085019 | 67 | 300 | 1.0 | 4.0 | 0.00 | 0.00 | 0.00 | 62 | 1016.3 |
| 20260510084540 | 67 | 194 | 1.0 | 8.0 | 0.00 | 0.00 | 0.00 | 63 | 1016.3 |
| 20260510084019 | 67 | 292 | 3.0 | 8.0 | 0.00 | 0.00 | 0.00 | 62 | 1016.2 |
| 20260510083522 | 67 | 65 | 1.0 | 5.0 | 0.00 | 0.00 | 0.00 | 62 | 1016.0 |
| 20260510083018 | 67 | 186 | 1.0 | 5.0 | 0.00 | 0.00 | 0.00 | 62 | 1016.0 |
| 20260510082619 | 67 | 190 | 2.0 | 5.0 | 0.00 | 0.00 | 0.00 | 62 | 1016.1 |
| 20260510082017 | 68 | 132 | 1.0 | 3.0 | 0.00 | 0.00 | 0.00 | 61 | 1016.2 |
| 20260510081528 | 68 | 5 | 0.0 | 3.0 | 0.00 | 0.00 | 0.00 | 61 | 1016.3 |
| 20260510081015 | 68 | 5 | 0.0 | 4.0 | 0.00 | 0.00 | 0.00 | 62 | 1016.3 |
| 20260510080515 | 68 | 39 | 1.0 | 6.0 | 0.00 | 0.00 | 0.00 | 61 | 1016.3 |
| 20260510080014 | 68 | 20 | 0.0 | 6.0 | 0.00 | 0.00 | 0.00 | 61 | 1016.3 |
| 20260510075513 | 68 | 360 | 2.0 | 5.0 | 0.00 | 0.00 | 0.00 | 61 | 1016.3 |
| 20260510075017 | 68 | 70 | 0.0 | 5.0 | 0.00 | 0.00 | 0.00 | 62 | 1016.2 |
| 20260510074513 | 68 | 348 | 1.0 | 4.0 | 0.00 | 0.00 | 0.00 | 62 | 1016.2 |
| 20260510074011 | 67 | 238 | 1.0 | 9.0 | 0.00 | 0.00 | 0.00 | 62 | 1016.1 |
| 20260510073510 | 67 | 5 | 4.0 | 9.0 | 0.00 | 0.00 | 0.00 | 63 | 1016.0 |
| 20260510073007 | 66 | 42 | 1.0 | 5.0 | 0.00 | 0.00 | 0.00 | 65 | 1016.0 |
| 20260510072506 | 65 | 360 | 2.0 | 6.0 | 0.00 | 0.00 | 0.00 | 66 | 1016.0 |
| 20260510072005 | 64 | 13 | 2.0 | 6.0 | 0.00 | 0.00 | 0.00 | 69 | 1015.7 |
| 20260510071502 | 63 | 27 | 3.0 | 6.0 | 0.00 | 0.00 | 0.00 | 70 | 1015.8 |
| 20260510071003 | 62 | 355 | 4.0 | 8.0 | 0.00 | 0.00 | 0.00 | 69 | 1015.8 |
| 20260510070503 | 62 | 300 | 3.0 | 8.0 | 0.00 | 0.00 | 0.00 | 70 | 1015.8 |
| 20260510070001 | 62 | 335 | 3.0 | 8.0 | 0.00 | 0.01 | 0.00 | 70 | 1015.8 |
| 20260510065559 | 62 | 350 | 2.0 | 9.0 | 0.00 | 0.01 | 0.00 | 70 | 1015.9 |
| 20260510065100 | 62 | 5 | 4.0 | 9.0 | 0.00 | 0.01 | 0.00 | 69 | 1015.9 |
| 20260510064603 | 62 | 5 | 3.0 | 9.0 | 0.00 | 0.01 | 0.00 | 69 | 1016.0 |
| 20260510064059 | 62 | 322 | 3.0 | 9.0 | 0.00 | 0.01 | 0.00 | 69 | 1016.0 |
| 20260510063559 | 61 | 355 | 2.0 | 8.0 | 0.00 | 0.01 | 0.00 | 70 | 1016.0 |
| 20260510063100 | 61 | 350 | 3.0 | 9.0 | 0.00 | 0.01 | 0.00 | 70 | 1016.0 |
| 20260510062559 | 60 | 315 | 5.0 | 9.0 | 0.00 | 0.01 | 0.00 | 71 | 1016.1 |
| 20260510062058 | 60 | 340 | 4.0 | 8.0 | 0.00 | 0.01 | 0.00 | 72 | 1016.0 |
| 20260510061604 | 59 | 341 | 3.0 | 8.0 | 0.00 | 0.01 | 0.00 | 72 | 1015.9 |
| 20260510061056 | 59 | 332 | 3.0 | 9.0 | 0.00 | 0.01 | 0.00 | 72 | 1015.9 |
| 20260510060555 | 59 | 348 | 3.0 | 9.0 | 0.00 | 0.01 | 0.00 | 72 | 1016.0 |
| 20260510060054 | 59 | 340 | 4.0 | 9.0 | 0.00 | 0.02 | 0.00 | 72 | 1015.9 |
| 20260510055552 | 59 | 323 | 3.0 | 8.0 | 0.00 | 0.02 | 0.00 | 72 | 1015.8 |
| 20260510055052 | 59 | 321 | 4.0 | 9.0 | 0.00 | 0.02 | 0.00 | 72 | 1015.7 |
| 20260510054553 | 59 | 336 | 4.0 | 8.0 | 0.00 | 0.02 | 0.00 | 72 | 1015.7 |
| 20260510054051 | 59 | 307 | 4.0 | 8.0 | 0.00 | 0.02 | 0.00 | 72 | 1015.7 |
| 20260510053555 | 59 | 324 | 3.0 | 9.0 | 0.00 | 0.02 | 0.00 | 72 | 1015.5 |
| 20260510053057 | 59 | 348 | 4.0 | 9.0 | 0.00 | 0.02 | 0.00 | 72 | 1015.4 |
| 20260510052552 | 59 | 355 | 3.0 | 9.0 | 0.00 | 0.02 | 0.00 | 72 | 1015.4 |
| 20260510052052 | 59 | 346 | 3.0 | 9.0 | 0.00 | 0.02 | 0.00 | 72 | 1015.3 |
| 20260510051551 | 59 | 10 | 4.0 | 9.0 | 0.00 | 0.02 | 0.00 | 72 | 1015.2 |
| 20260510051052 | 59 | 360 | 5.0 | 10.0 | 0.00 | 0.02 | 0.00 | 72 | 1015.1 |
| 20260510050551 | 59 | 15 | 4.0 | 10.0 | 0.00 | 0.02 | 0.00 | 72 | 1015.1 |
| 20260510050050 | 59 | 307 | 3.0 | 9.0 | 0.00 | 0.02 | 0.00 | 72 | 1015.1 |
| 20260510045550 | 59 | 310 | 2.0 | 6.0 | 0.00 | 0.02 | 0.00 | 72 | 1015.1 |
| 20260510045050 | 59 | 329 | 3.0 | 8.0 | 0.00 | 0.02 | 0.00 | 72 | 1014.9 |
| 20260510044550 | 59 | 306 | 2.0 | 8.0 | 0.00 | 0.02 | 0.00 | 72 | 1014.9 |
| 20260510044050 | 59 | 333 | 3.0 | 10.0 | 0.00 | 0.02 | 0.00 | 72 | 1014.8 |
| 20260510043549 | 59 | 15 | 5.0 | 10.0 | 0.00 | 0.02 | 0.00 | 72 | 1014.9 |
| 20260510043051 | 59 | 355 | 4.0 | 10.0 | 0.00 | 0.02 | 0.00 | 72 | 1014.9 |
| 20260510042548 | 59 | 340 | 3.0 | 9.0 | 0.00 | 0.02 | 0.00 | 72 | 1015.1 |
| 20260510042052 | 59 | 5 | 3.0 | 9.0 | 0.00 | 0.02 | 0.00 | 72 | 1014.9 |
| 20260510041548 | 59 | 355 | 1.0 | 6.0 | 0.00 | 0.02 | 0.00 | 72 | 1014.8 |
| 20260510041049 | 59 | 333 | 3.0 | 6.0 | 0.00 | 0.02 | 0.00 | 72 | 1014.9 |
| 20260510040549 | 59 | 332 | 2.0 | 5.0 | 0.00 | 0.02 | 0.00 | 72 | 1015.0 |
| 20260510040057 | 59 | 306 | 2.0 | 5.0 | 0.00 | 0.02 | 0.00 | 72 | 1015.0 |
| 20260510035547 | 58 | 324 | 2.0 | 5.0 | 0.00 | 0.02 | 0.00 | 72 | 1015.0 |
| 20260510035048 | 58 | 332 | 2.0 | 6.0 | 0.00 | 0.02 | 0.00 | 73 | 1014.9 |
| 20260510034557 | 58 | 355 | 3.0 | 9.0 | 0.00 | 0.02 | 0.00 | 73 | 1015.0 |
| 20260510034048 | 58 | 326 | 3.0 | 9.0 | 0.00 | 0.02 | 0.00 | 73 | 1014.8 |
| 20260510033548 | 58 | 15 | 3.0 | 8.0 | 0.00 | 0.02 | 0.00 | 73 | 1014.7 |
| 20260510033046 | 58 | 355 | 3.0 | 10.0 | 0.00 | 0.02 | 0.00 | 72 | 1014.8 |
| 20260510032547 | 58 | 10 | 3.0 | 9.0 | 0.00 | 0.02 | 0.00 | 72 | 1014.9 |
| 20260510032046 | 58 | 304 | 3.0 | 9.0 | 0.00 | 0.02 | 0.00 | 72 | 1014.9 |
| 20260510031558 | 58 | 347 | 3.0 | 10.0 | 0.00 | 0.02 | 0.00 | 72 | 1015.0 |
| 20260510031044 | 58 | 336 | 3.0 | 10.0 | 0.00 | 0.02 | 0.00 | 72 | 1015.0 |
| 20260510030544 | 58 | 305 | 3.0 | 8.0 | 0.00 | 0.02 | 0.00 | 72 | 1015.0 |
| 20260510030044 | 58 | 360 | 2.0 | 9.0 | 0.00 | 0.02 | 0.00 | 72 | 1015.0 |
| 20260510025543 | 58 | 328 | 4.0 | 9.0 | 0.00 | 0.02 | 0.00 | 72 | 1015.0 |
| 20260510025144 | 59 | 311 | 3.0 | 6.0 | 0.00 | 0.02 | 0.00 | 72 | 1015.1 |
| 20260510024543 | 59 | 296 | 3.0 | 8.0 | 0.00 | 0.02 | 0.00 | 72 | 1015.2 |
| 20260510024043 | 59 | 360 | 3.0 | 8.0 | 0.00 | 0.02 | 0.00 | 72 | 1015.3 |
| 20260510023542 | 59 | 345 | 4.0 | 8.0 | 0.00 | 0.02 | 0.00 | 71 | 1015.2 |
| 20260510023045 | 59 | 337 | 4.0 | 8.0 | 0.00 | 0.02 | 0.00 | 71 | 1015.1 |
| 20260510022542 | 59 | 325 | 4.0 | 6.0 | 0.00 | 0.02 | 0.00 | 71 | 1015.1 |
| 20260510022041 | 59 | 320 | 3.0 | 8.0 | 0.00 | 0.02 | 0.00 | 71 | 1015.3 |
| 20260510021542 | 58 | 343 | 3.0 | 8.0 | 0.00 | 0.02 | 0.00 | 71 | 1015.4 |
| 20260510021041 | 58 | 328 | 3.0 | 8.0 | 0.00 | 0.02 | 0.00 | 72 | 1015.3 |
| 20260510020541 | 58 | 322 | 4.0 | 8.0 | 0.00 | 0.02 | 0.00 | 72 | 1015.2 |
| 20260510020042 | 58 | 355 | 3.0 | 9.0 | 0.00 | 0.02 | 0.00 | 72 | 1015.2 |
| 20260510015541 | 58 | 355 | 4.0 | 9.0 | 0.00 | 0.02 | 0.00 | 72 | 1015.1 |
| 20260510015039 | 58 | 5 | 4.0 | 8.0 | 0.00 | 0.02 | 0.00 | 72 | 1015.1 |
| 20260510014539 | 58 | 5 | 3.0 | 9.0 | 0.00 | 0.02 | 0.00 | 72 | 1015.0 |
| 20260510014039 | 57 | 344 | 4.0 | 9.0 | 0.00 | 0.02 | 0.00 | 73 | 1015.1 |
| 20260510013542 | 57 | 343 | 2.0 | 10.0 | 0.00 | 0.02 | 0.00 | 73 | 1015.2 |
| 20260510013045 | 57 | 5 | 5.0 | 10.0 | 0.00 | 0.02 | 0.00 | 73 | 1015.3 |
| 20260510012538 | 58 | 339 | 5.0 | 9.0 | 0.00 | 0.02 | 0.00 | 73 | 1015.5 |
| 20260510012038 | 58 | 336 | 6.0 | 9.0 | 0.00 | 0.02 | 0.00 | 72 | 1015.4 |
| 20260510011535 | 58 | 342 | 3.0 | 10.0 | 0.00 | 0.02 | 0.00 | 72 | 1015.6 |
| 20260510011037 | 58 | 324 | 5.0 | 10.0 | 0.00 | 0.02 | 0.00 | 72 | 1015.5 |
| 20260510010536 | 58 | 351 | 5.0 | 8.0 | 0.00 | 0.02 | 0.00 | 72 | 1015.6 |
| 20260510010033 | 58 | 339 | 4.0 | 6.0 | 0.00 | 0.02 | 0.00 | 72 | 1015.6 |
| 20260510005533 | 58 | 355 | 4.0 | 8.0 | 0.00 | 0.02 | 0.00 | 72 | 1015.6 |
| 20260510005032 | 58 | 342 | 4.0 | 9.0 | 0.00 | 0.02 | 0.00 | 71 | 1015.6 |
| 20260510004531 | 58 | 323 | 5.0 | 10.0 | 0.00 | 0.02 | 0.00 | 71 | 1015.6 |
| 20260510004030 | 58 | 296 | 5.0 | 10.0 | 0.00 | 0.02 | 0.00 | 71 | 1015.5 |
| 20260510003530 | 58 | 336 | 4.0 | 9.0 | 0.00 | 0.02 | 0.00 | 71 | 1015.6 |
| 20260510003031 | 59 | 338 | 5.0 | 10.0 | 0.00 | 0.02 | 0.00 | 71 | 1015.5 |
| 20260510002527 | 59 | 342 | 6.0 | 10.0 | 0.00 | 0.02 | 0.00 | 70 | 1015.5 |
| 20260510002027 | 59 | 355 | 5.0 | 9.0 | 0.00 | 0.02 | 0.00 | 70 | 1015.5 |
| 20260510001526 | 59 | 326 | 4.0 | 8.0 | 0.00 | 0.02 | 0.00 | 70 | 1015.6 |
| 20260510001025 | 59 | 346 | 5.0 | 8.0 | 0.00 | 0.02 | 0.00 | 70 | 1015.5 |
| 20260510000524 | 59 | 341 | 5.0 | 6.0 | 0.00 | 0.02 | 0.00 | 70 | 1015.6 |
| 20260510000024 | 59 | 304 | 4.0 | 9.0 | 0.00 | 0.02 | 0.00 | 69 | 1015.6 |
| 20260509235522 | 59 | 338 | 5.0 | 9.0 | 0.00 | 0.02 | 0.00 | 69 | 1015.7 |
| 20260509235022 | 59 | 333 | 3.0 | 6.0 | 0.00 | 0.02 | 0.00 | 69 | 1015.7 |
| 20260509234533 | 59 | 349 | 2.0 | 6.0 | 0.00 | 0.02 | 0.00 | 69 | 1015.7 |
| 20260509234020 | 60 | 355 | 3.0 | 8.0 | 0.00 | 0.02 | 0.00 | 69 | 1015.6 |
| 20260509233521 | 60 | 320 | 2.0 | 9.0 | 0.00 | 0.02 | 0.00 | 68 | 1015.6 |
| 20260509233019 | 60 | 360 | 5.0 | 9.0 | 0.00 | 0.02 | 0.00 | 68 | 1015.6 |
| 20260509232518 | 60 | 309 | 5.0 | 9.0 | 0.00 | 0.02 | 0.00 | 67 | 1015.7 |
| 20260509232018 | 60 | 312 | 4.0 | 9.0 | 0.00 | 0.02 | 0.00 | 67 | 1015.7 |
| 20260509231618 | 61 | 355 | 5.0 | 9.0 | 0.00 | 0.02 | 0.00 | 68 | 1015.9 |
| 20260509231017 | 60 | 331 | 5.0 | 8.0 | 0.00 | 0.02 | 0.00 | 68 | 1015.8 |
| 20260509230516 | 60 | 11 | 4.0 | 8.0 | 0.00 | 0.02 | 0.00 | 67 | 1015.8 |
| 20260509230015 | 60 | 347 | 4.0 | 8.0 | 0.00 | 0.02 | 0.00 | 67 | 1015.9 |
| 20260509225515 | 60 | 321 | 4.0 | 8.0 | 0.00 | 0.02 | 0.00 | 67 | 1016.0 |
| 20260509225012 | 60 | 340 | 4.0 | 8.0 | 0.00 | 0.02 | 0.00 | 67 | 1016.1 |
| 20260509224512 | 60 | 360 | 5.0 | 9.0 | 0.00 | 0.02 | 0.00 | 67 | 1016.1 |
| 20260509224010 | 60 | 5 | 5.0 | 9.0 | 0.00 | 0.02 | 0.00 | 66 | 1016.0 |
| 20260509223511 | 61 | 346 | 2.0 | 8.0 | 0.00 | 0.02 | 0.00 | 66 | 1016.1 |
| 20260509223009 | 61 | 339 | 5.0 | 8.0 | 0.00 | 0.02 | 0.00 | 66 | 1016.1 |